Weather History for Morgantown, WV

Change the Weather History Date:

Tuesday, December 9, 2008

  Actual Average Record
Temperature  
Mean Temperature 51 °F 36 °F  
Max Temperature 62 °F 44 °F 77 °F (1966)
Min Temperature 40 °F 29 °F 6 °F (1958)
Degree Days  
Heating Degree Days 14 29  
Month to date heating degree days 290 246  
Since 1 July heating degree days 1394 1294  
Cooling Degree Days 0 0  
Month to date cooling degree days 0 0  
Year to date cooling degree days 738 814  
Growing Degree Days 2 (Base 50)    
Moisture  
Dew Point 36 °F    
Average Humidity 54    
Maximum Humidity 67    
Minimum Humidity 40    
Precipitation  
Precipitation T in 0.10 in 1.28 in (1973)
Month to date precipitation 0.17 0.92  
Year to date precipitation 40.81 39.84  
Snow  
Snow 0.00 in - - ()
Month to date snowfall 0.0  
Snow Depth 0.00 in    
Sea Level Pressure  
Sea Level Pressure 30.03 in    
Wind  
Wind Speed 8 mph (South)    
Max Wind Speed 18 mph    
Max Gust Speed 30 mph    
Visibility 10 miles    
Events      
T = Trace of Precipitation, MM = Missing Value Source: NWS Daily Summary

Daily Weather History Graph

Daily Weather History Graph

Search for Another Location

Airport:

Trip Planner

Search our weather history database for the weather conditions in past years. The results will help you decide how hot, cold, wet, or windy it might be!

Date:

Astronomy

Dec. 09, 2008 Rise Set
Actual Time 7:29 AM EST 4:55 PM EST
Civil Twilight 6:58 AM EST 5:25 PM EST
Nautical Twilight 6:25 AM EST 5:59 PM EST
Astronomical Twilight 5:52 AM EST 6:32 PM EST
Moon 2:12 PM EST (12/9) 3:51 AM EST (12/9)
Length of Visible Light 10h 26m
Length of Day
9h 26m
Waxing Gibbous, 87% of the Moon is Illuminated
Dec 9
Waxing Gibbous
Dec 12
Full
Dec 19
Last Quarter
Dec 27
New
Jan 4
First Quarter

Hourly Weather History & Observations

Time (EST) Temp. Windchill Dew Point Humidity Pressure Visibility Wind Dir Wind Speed Gust Speed Precip Events Conditions
12:53 AM 43.0 °F 39.5 °F 26.1 °F 51% 30.13 in 10.0 mi SE 5.8 mph - N/A   Overcast
1:53 AM 43.0 °F 40.3 °F 26.1 °F 51% 30.13 in 10.0 mi SE 4.6 mph - N/A   Mostly Cloudy
2:53 AM 44.1 °F 39.5 °F 24.1 °F 45% 30.14 in 10.0 mi SSE 8.1 mph - N/A   Overcast
3:53 AM 43.0 °F 41.3 °F 24.1 °F 47% 30.14 in 10.0 mi SSE 3.5 mph - N/A   Overcast
4:53 AM 42.1 °F 40.2 °F 24.1 °F 49% 30.14 in 10.0 mi South 3.5 mph - N/A   Partly Cloudy
5:53 AM 45.0 °F 43.5 °F 21.9 °F 40% 30.14 in 10.0 mi South 3.5 mph - N/A   Clear
6:53 AM 45.0 °F 41.8 °F 21.9 °F 40% 30.15 in 10.0 mi South 5.8 mph - N/A   Clear
7:53 AM 46.9 °F - 24.1 °F 41% 30.13 in 10.0 mi South 8.1 mph - N/A   Clear
8:53 AM 48.9 °F - 28.9 °F 46% 30.11 in 10.0 mi SSW 6.9 mph - N/A   Clear
9:53 AM 53.1 °F - 34.0 °F 48% 30.09 in 10.0 mi South 6.9 mph - N/A   Clear
10:53 AM 55.9 °F - 37.0 °F 49% 30.06 in 10.0 mi South 10.4 mph 18.4 mph N/A   Clear
11:53 AM 57.9 °F - 39.0 °F 49% 30.02 in 10.0 mi South 11.5 mph 20.7 mph N/A   Clear
12:53 PM 59.0 °F - 39.9 °F 49% 29.97 in 10.0 mi South 13.8 mph 23.0 mph N/A   Clear
1:53 PM 60.1 °F - 41.0 °F 49% 29.96 in 10.0 mi South 8.1 mph 17.3 mph N/A   Clear
2:53 PM 62.1 °F - 43.0 °F 50% 29.96 in 10.0 mi SSW 15.0 mph 28.8 mph N/A   Scattered Clouds
3:53 PM 61.0 °F - 44.1 °F 54% 29.98 in 10.0 mi South 8.1 mph 21.9 mph N/A   Overcast
4:53 PM 60.1 °F - 44.1 °F 55% 29.99 in 10.0 mi South 9.2 mph 23.0 mph N/A   Overcast
5:53 PM 59.0 °F - 44.1 °F 58% 29.98 in 10.0 mi South 9.2 mph - N/A   Partly Cloudy
6:53 PM 57.9 °F - 43.0 °F 58% 29.96 in 10.0 mi South 6.9 mph - N/A   Partly Cloudy
7:53 PM 60.1 °F - 44.1 °F 55% 29.94 in 10.0 mi South 9.2 mph 19.6 mph N/A   Overcast
8:53 PM 57.9 °F - 44.1 °F 60% 29.94 in 10.0 mi South 8.1 mph 16.1 mph N/A   Overcast
9:53 PM 57.0 °F - 46.0 °F 67% 29.91 in 10.0 mi South 4.6 mph - 0.00 in   Mostly Cloudy
10:53 PM 57.9 °F - 46.0 °F 65% 29.89 in 10.0 mi South 8.1 mph - N/A   Clear
11:53 PM 59.0 °F - 46.9 °F 64% 29.88 in 10.0 mi South 5.8 mph - N/A   Overcast